www.pogodaiklimat.ru

Погода и климат >> Архив погоды >> Греция >> Karpathos


ПОГОДА в Karpathos

  • Прогноз погоды в Karpathos
  • Монитор погоды в Karpathos
  • Климат города

АРХИВ ПОГОДЫ в Karpathos

Время (UTC), дата Ветер
(напр.,м/с)
 
Видим.   Явления Облачность Т
(С)
Тd
(С)
f
(%)
Тe
(С)
Тes
(С)
Комфортность P
(гПа)
Po
(гПа)
Тmin
(С)
Tmax
(С)
R
(мм)
R24
(мм)
S
(см)
03 16.09 З 10
{14}
н/о н/о +24.0 +19.8 77 +29 +29 душно 1013.5 1011.5
06 16.09 З 11
{15}
10 км 3/3 300 м
[Cu hum]
+25.6 +20.0 71 +31 +31 очень
душно
1013.9 1014.0 +24.6
09 16.09 З 11
{15}
10 км 3/3 300 м
[Cu hum]
+27.6 +19.7 62 +33 +34 очень
душно
1014.6 1015.0
12 16.09 З 9
{15}
10 км 1/1 300 м
[Cu hum]
+28.4 +19.1 57 +34 +35 очень
душно
1014.3 1014.0
15 16.09 СЗ 9
{15}
10 км 1/1 300 м
[Cu hum]
+27.0 +19.8 65 +33 +33 очень
душно
1013.6 1014.0
18 16.09 З 9
{14}
10 км 1/1 300 м
[Cu hum]
+25.0 +20.0 74 +31 +31 очень
душно
1014.2 1014.0 +28.4
21 16.09 З 9
{13}
н/о н/о +24.5 +20.7 79 +30 +30 очень
душно
1013.9 1012.0
00 17.09 З 7
{12}
н/о н/о +24.8 +20.8 78 +31 +31 очень
душно
1012.8 1010.9
03 17.09 З 6
{12}
10 км 1/1 300 м
[Cu hum]
+24.4 +21.1 82 +31 +31 очень
душно
1012.3 1012.0
06 17.09 СЗ 6
{10}
10 км 1/1 300 м
[Cu med, cong]
+26.2 +21.0 73 +33 +34 очень
душно
1013.2 1013.0 +24.0
09 17.09 СЗ 8
{12}
10 км 1/1 300 м
[Cu med, cong]
+28.6 +20.3 61 +35 +37 очень
душно
1013.5 1014.0
12 17.09 СЗ 10
{13}
10 км 1/1 300 м
[Cu hum]
+29.0 +19.6 57 +35 +36 очень
душно
1013.1 1013.0
15 17.09 СЗ 11
{15}
10 км ясно +27.4 +18.9 60 +33 +33 очень
душно
1012.4 1012.0
18 17.09 СЗ 11
{17}
10 км 1/1 300 м
[Cu hum]
+25.0 +20.0 74 +31 +31 очень
душно
1012.4 1012.0 +29.8
21 17.09 З 9
{16}
н/о н/о +24.6 +20.7 79 +31 +31 очень
душно
1012.4 1010.5
00 18.09 З 8
{15}
н/о н/о +24.9 +21.0 79 +31 +31 очень
душно
1011.5 1009.6
03 18.09 З 7
{12}
н/о н/о +24.4 +20.1 77 +30 +30 очень
душно
1011.4 1009.5
06 18.09 СЗ 12
{14}
10 км 1/1 300 м
[Cu med, cong]
+25.8 +19.5 68 +31 +31 очень
душно
1012.2 1012.0 +24.3
09 18.09 СЗ 14
{18}
10 км 1/1 300 м
[Cu med, cong]
+27.2 +19.2 62 +33 +33 очень
душно
1012.9 1013.0
12 18.09 СЗ 16
{22}
10 км 1/1 300 м
[Cu hum]
+27.2 +18.2 58 +32 +32 очень
душно
1012.3 1012.0
15 18.09 СЗ 13
{21}
10 км 1/1 300 м
[Cu hum]
+26.2 +17.5 59 +30 +30 душно 1012.3 1012.0
18 18.09 СЗ 12
{17}
10 км 1/1 300 м
[Cu hum]
+24.0 +19.0 74 +29 +29 душно 1013.0 1013.0 +27.5
21 18.09 З 11
{17}
н/о н/о +23.9 +19.6 77 +29 +29 душно 1013.0 1011.1
00 19.09 СЗ 13
{20}
н/о н/о +23.8 +19.1 75 +29 +29 душно 1012.1 1010.2
03 19.09 З 12
{19}
н/о н/о +23.9 +19.5 76 +29 +29 душно 1012.0 1010.1
06 19.09 СЗ 12
{19}
10 км 1/1 300 м
[Cu hum]
+24.6 +19.1 71 +30 +30 очень
душно
1013.3 1013.0 +23.7
09 19.09 СЗ 13
{20}
10 км 3/3 600 м
[Cu hum Ci fib]
+26.4 +19.1 64 +32 +32 очень
душно
1013.6 1014.0
12 19.09 СЗ 12
{20}
10 км 6/3 600 м
[Cu hum Ci sp]
+26.8 +19.6 65 +33 +33 очень
душно
1013.1 1013.0
15 19.09 СЗ 11
{19}
10 км 6/3 600 м
[Cu hum Ci sp]
+25.4 +18.9 67 +30 +30 душно 1012.8 1013.0
18 19.09 СЗ 10
{16}
10 км 5/3 600 м
[Cu hum Cs]
+23.8 +19.1 75 +29 +29 душно 1013.4 1013.0 +27.1
21 19.09 З 11
{16}
н/о н/о +23.2 +18.9 77 +29 +29 душно 1013.3 1011.4
00 20.09 СЗ 11
{18}
н/о н/о +23.0 +18.8 77 +29 +29 очень
душно
1012.5 1010.6
03 20.09 СЗ 10
{16}
10 км 1/1 600 м
[Cu hum]
+23.0 +18.5 76 +29 +29 очень
душно
1012.1 1012.0
06 20.09 З 10
{15}
10 км 3/3 300 м
[Cu hum]
+24.6 +20.0 76 +30 +30 очень
душно
1013.0 1013.0 +22.8
09 20.09 СЗ 11
{15}
10 км 3/3 300 м
[Cu hum]
+26.2 +19.5 67 +32 +32 очень
душно
1013.9 1014.0
12 20.09 СЗ 11
{16}
10 км 4/4 300 м
[Cu hum]
+26.4 +18.3 61 +31 +31 душно 1013.3 1013.0
15 20.09 СЗ 10
{17}
10 км 4/4 300 м
[Cu hum]
+25.0 +18.0 65 +29 +29 душно 1012.5 1013.0
18 20.09 СЗ 11
{15}
10 км 4/4 300 м
[Cu hum]
+23.0 +18.0 73 +28 +28 душно 1012.9 1013.0 +26.4
21 20.09 СЗ 9
{16}
н/о н/о +22.7 +17.6 73 +28 +28 душно 1012.6 1010.7
00 21.09 З 8
{14}
н/о н/о +22.7 +18.5 77 +28 +28 душно 1012.6 1010.6
03 21.09 СЗ 8
{13}
10 км 3/3 300 м
[Cu hum]
+23.0 +18.0 73 +28 +28 душно 1012.2 1012.0
06 21.09 СЗ 9
{15}
10 км 3/3 300 м
[Cu hum]
+24.6 +18.6 69 +29 +29 душно 1012.7 1013.0 +23.0
09 21.09 СЗ 9
{15}
10 км 3/3 300 м
[Cu hum]
+26.6 +19.5 65 +32 +33 очень
душно
1014.0 1014.0
12 21.09 З 10
{16}
10 км 3/3 300 м
[Cu hum]
+27.0 +19.0 62 +32 +33 очень
душно
1013.4 1013.0
15 21.09 З 10
{16}
10 км 3/3 300 м
[Cu hum]
+25.2 +18.9 68 +30 +30 душно 1013.2 1013.0
18 21.09 З 9
{14}
10 км 1/1 300 м
[Cu hum]
+23.2 +18.2 73 +29 +29 душно 1013.8 1014.0 +27.7
21 21.09 З 8
{13}
н/о н/о +22.7 +17.8 74 +28 +28 душно 1014.5 1012.6
00 22.09 З 8
{12}
н/о н/о +22.2 +17.4 74 +27 +27 душно 1014.2 1012.2
03 22.09 СЗ 8
{13}
10 км 1/1 300 м
[Cu hum]
+22.2 +17.6 75 +27 +27 душно 1013.7 1014.0
06 22.09 СЗ 8
{12}
10 км 4/3 600 м
[Cu hum Ci fib]
+23.8 +17.6 68 +28 +28 душно 1014.7 1015.0 +22.0
09 22.09 СЗ 10
{14}
10 км 4/3 750 м
[Cu hum Ci fib]
+26.4 +18.0 60 +31 +31 душно 1015.4 1015.0
12 22.09 СЗ 9
{14}
10 км 3/3 600 м
[Cu hum Ci fib]
+26.8 +18.0 59 +31 +32 душно 1015.2 1015.0
15 22.09 СЗ 8
{14}
10 км 4/3 600 м
[Cu hum Ci fib]
+25.4 +18.7 66 +30 +30 душно 1014.6 1015.0
18 22.09 СЗ 7
{12}
10 км 4/3 600 м
[Cu hum Ci fib]
+23.4 +19.2 77 +30 +30 очень
душно
1015.2 1015.0 +27.2
21 22.09 З 7
{12}
н/о н/о +23.1 +18.2 74 +29 +29 очень
душно
1015.7 1013.8

 

Местоположение метеостанции Karpathos (Греция): широта 35.52 долгота 27.25 высота над уровнем моря 6 м.

В архиве по умолчанию представлена погода в Karpathos за последнюю неделю. Архивные данные за месяц целиком и за предыдущие месяцы, начиная с января 2011 года, Вы можете получить, выбрав интересующий диапазон дат из раскрывающегося списка и нажав кнопку "Ввод!".


*Определитесь, кто Вы:
робот инопланетянин человек

Внимание! Время в таблицах - всемирное. Для получения местного времени необходимо прибавить поправку, которая в Karpathos равна 2 ч.

Смотрите также архив погоды в соседних городах и на ближайших метеорологических станциях:

Погода в Sitia (Греция) (110 км)
Погода в Rhodes (Греция) (123 км)
Погода в Datca (Турция) (137 км)
Погода в Kos Airport (Греция) (141 км)
Погода в Bodrum (Турция) (169 км)
Погода в Marmaris (Турция) (174 км)
Погода в Kasteli (Греция) (179 км)
Погода в Heraklion (Греция) (189 км)
Погода в Dalaman (Турция) (190 км)
Погода в Bodrum Milas (Турция) (194 км)

Пояснения к столбцам:

Ветер - указаны скорость ветра в м/с - средняя за 10 мин, порывы в срок и между сроками (в фигурных скобках) и направление, откуда дует ветер: С - северный, СВ - северо-восточный, В - восточный, ЮВ - юго-восточный, Ю - южный, ЮЗ - юго-западный, З - западный, СЗ - северо-западный.
Видимость - горизонтальная дальность видимости в метрах или километрах. При видимости от 1 до 10 км при отсутствии осадков обычно наблюдается дымка, при ухудшении видимости до 1 км и менее - туман. В сухую погоду видимость может ухудшаться дымом, пылью или мглою.
Явления - указаны атмосферные явления, наблюдавшиеся в срок или в последний час перед сроком; фигурными скобками обозначены явления, наблюдавшиеся между сроками (за 1-3 часа до срока); квадратными скобками обозначены град или гололедные отложения с указанием их диаметра в мм.
Облачность - указаны через наклонную черту общая и нижняя облачность в баллах и высота нижней границы облаков в метрах; квадратными скобками обозначены формы облаков: Ci - перистые, Cs - перисто-слоистые, Cc - перисто-кучевые, Ac - высококучевые, As - высокослоистые, Sc - слоисто-кучевые, Ns - слоисто-дождевые, Cu - кучевые, Cb - кучево-дождевые. Подробнее классификацию облаков см. в Атласе облаков (PDF).
T - Температура воздуха - температура, измеренная на высоте 2 м над землей.
Td - Температура точки росы - температура, при понижении до которой содержащийся в воздухе водяной пар достигнет насыщения.
f - Относительная влажность воздуха - влажноcть воздуха, измеренная на высоте 2 м над землей.
Te - Эффективная температура - температура, которую ощущает одетый по сезону человек в тени. Характеристика душности погоды. При расчете учитывается влияние влажности воздуха и скорости ветра на теплоощущения человека.
Tes - Эффективная температура на солнце - температура, которую ощущает человек, с поправкой на солнечный нагрев. Характеристика знойности погоды. Зависит от высоты солнца над горизонтом, облачности и скорости ветра. Ночью, в пасмурную погоду, а также при ветре 12 м/с и более поправка равна нулю.
P - Атмосферное давление - приведенное к уровню моря атмосферное давление.
Po - Атмосферное давление - измеренное на уровне метеостанции атмосферное давление.
Tmin - Минимальная температура - минимум температуры воздуха на высоте 2 м над землей.
Tmax - Максимальная температура - максимум температуры воздуха на высоте 2 м над землей.
R - Количество осадков - Количество выпавших осадков за период времени, мм. При наведении курсора мыши на число - период времени, за который выпало указанное количество осадков.
R24 - Количество осадков - Количество выпавших осадков за 24 часа, мм.
S - Снежный покров - Высота снежного покрова, см. При наведении курсора мыши на число - состояние снежного покрова и степень покрытия местности в баллах.